Printer-friendly version
Follow the MPC on Twitter Follow the MPC on Facebook The MPC blog
Minor Planet Center

MPEC 2010-N14 : 2010 MU112

The following Minor Planet Electronic Circular may be linked-to from your own Web pages, but must not otherwise be redistributed electronically.

A form allowing access to any MPEC is at the bottom of this page.


Read MPEC 2010-N13 Read MPEC 2010-N15


M.P.E.C. 2010-N14                                Issued 2010 July 5, 16:38 UT

     The Minor Planet Electronic Circulars contain information on unusual
         minor planets and routine data on comets.  They are published
   on behalf of Commission 20 of the International Astronomical Union by the
          Minor Planet Center, Smithsonian Astrophysical Observatory,
                          Cambridge, MA 02138, U.S.A.

             Prepared using the Tamkin Foundation Computer Network

                              MPC@CFA.HARVARD.EDU
       URL http://www.minorplanetcenter.org/iau/mpc.html  ISSN 1523-6714

                                  2010 MU112

Observations:
     K10MB2U* S2010 06 30.07214 20 56 44.04 +62 15 06.8          21   R EN014C51
     K10MB2U  s2010 06 30.07214 1 + 1944.7514 + 1037.7166 + 6536.4492   EN014C51
     K10MB2U  S2010 06 30.13823 20 56 45.70 +62 21 59.1                 EN014C51
     K10MB2U  s2010 06 30.13823 1 + 1902.7482 + 1038.0307 + 6548.7485   EN014C51
     K10MB2U  S2010 06 30.20432 20 56 47.43 +62 28 50.9                 EN014C51
     K10MB2U  s2010 06 30.20432 1 + 1860.8638 + 1038.1655 + 6560.7573   EN014C51
     K10MB2U  S2010 06 30.27054 20 56 49.15 +62 35 43.3                 EN014C51
     K10MB2U  s2010 06 30.27054 1 + 1899.1530 + 1042.4989 + 6549.1190   EN014C51
     K10MB2U  S2010 06 30.33662 20 56 50.89 +62 42 33.8                 EN014C51
     K10MB2U  s2010 06 30.33662 1 + 1857.4868 + 1042.4071 + 6561.0234   EN014C51
     K10MB2U  S2010 06 30.40284 20 56 52.50 +62 49 24.9                 EN014C51
     K10MB2U  s2010 06 30.40284 1 + 1895.7387 + 1046.4602 + 6549.4182   EN014C51
     K10MB2U  S2010 06 30.46893 20 56 54.24 +62 56 14.9                 EN014C51
     K10MB2U  s2010 06 30.46893 1 + 1853.4050 + 1046.0719 + 6561.6909   EN014C51
     K10MB2U KC2010 07 03.31765820 58 09.56 +67 42 56.0          21.8 V EN014H21
     K10MB2U KC2010 07 03.33168120 58 09.77 +67 44 18.0          22.2 V EN014H21
     K10MB2U KC2010 07 03.34461220 58 10.00 +67 45 33.5          21.8 V EN014H21
     K10MB2U KC2010 07 03.37183020 58 10.40 +67 48 13.3                 EN014H21
     K10MB2U KC2010 07 04.32828720 58 36.55 +69 20 37.6          22.3 V EN014H21
     K10MB2U KC2010 07 04.34772720 58 36.85 +69 22 28.9          22.9 V EN014H21
     K10MB2U KC2010 07 04.36789820 58 37.17 +69 24 24.8          22.4 V EN014H21

Observer details:
C51 WISE.  Observer W. Infrared Survey Explorer.  Measurers A. K. Mainzer,
    E. L. Wright, J. M. Bauer, T. Grav, J. W. Dailey, J. R. Masiero,
    R. M. Cutri, R. S. McMillan,
    R. G. Walker. (http://wise.ssl.berkeley.edu/mission_sci.html).
H21 Astronomical Research Observatory, Westfield.  Observer R. Holmes.
    Measurers R. Holmes, H. Devore.  0.81-m f/4.0 astrograph + CCD.

Orbital elements:
2010 MU112                                               Earth MOID = 0.1919 AU
Epoch 2010 July 23.0 TT = JDT 2455400.5                 MPC
M 352.09846              (2000.0)            P               Q
n   0.23869115     Peri.  107.45289     +0.60879177     -0.08042943
a   2.5738220      Node   263.92311     -0.08391919     +0.98273707
e   0.6585522      Incl.   52.53288     +0.78887904     +0.16661017
P   4.13           H   20.7           G   0.15           U   7
Residuals in seconds of arc
100630 C51  0.3+  0.0     100630 C51  0.4-  0.3-    100703 H21  0.3+  0.3+
100630 C51  0.1-  0.1+    100630 C51  0.3-  0.1-    100704 H21  0.2-  0.0
100630 C51  0.0   0.1+    100703 H21  0.0   0.2+    100704 H21  0.1-  0.2-
100630 C51  0.1+  0.2+    100703 H21  0.0   0.0     100704 H21  0.1+  0.2+
100630 C51  0.2+  0.1-    100703 H21  0.3+  0.3-

Ephemeris:
2010 MU112               a,e,i = 2.57, 0.66, 53                  q = 0.8788
Date    TT    R. A. (2000) Decl.     Delta      r     Elong.  Phase     V
2010 07 03    20 58.01   +67 11.6    0.624    1.160    86.6    61.0    22.2
2010 07 13    21 04.50   +81 49.6    0.690    1.077    75.6    66.1    22.4
2010 07 23    08 38.53   +86 43.9    0.774    1.003    66.6    68.3    22.6
2010 08 02    08 52.14   +77 32.4    0.861    0.943    59.7    68.3    22.6
2010 08 12    08 54.05   +69 36.2    0.940    0.900    54.7    66.8    22.7
2010 08 22    08 55.63   +62 15.4    1.004    0.880    51.8    64.5    22.7
2010 09 01    08 58.07   +55 05.8    1.050    0.885    50.8    62.2    22.8
2010 09 11    09 01.51   +47 56.3    1.077    0.914    51.9    60.1    22.8
2010 09 21    09 05.45   +40 42.8    1.085    0.964    54.8    58.3    22.9
2010 10 01    09 09.24   +33 22.5    1.078    1.030    59.3    56.7    23.0
2010 10 11    09 12.07   +25 53.1    1.058    1.108    65.1    54.8    23.0
2010 10 21    09 13.10   +18 11.4    1.031    1.194    72.2    52.6    23.1
2010 10 31    09 11.48   +10 15.2    1.001    1.284    80.2    49.6    23.1
2010 11 10    09 06.29   +02 06.3    0.974    1.377    89.0    46.0    23.1
2010 11 20    08 56.56   -06 05.3    0.957    1.470    98.2    41.7    23.1
2010 11 30    08 41.56   -13 58.6    0.955    1.564   107.3    37.0    23.1
2010 12 10    08 21.06   -21 01.4    0.975    1.657   115.4    32.5    23.1
2010 12 20    07 56.03   -26 38.7    1.020    1.748   121.5    28.7    23.2
2010 12 30    07 28.85   -30 27.7    1.090    1.838   124.8    26.1    23.4
2011 01 09    07 02.76   -32 26.5    1.184    1.926   125.2    24.6    23.6
2011 01 19    06 40.66   -32 53.3    1.298    2.013   123.2    24.1    23.9

Carl W. Hergenrother         (C) Copyright 2010 MPC           M.P.E.C. 2010-N14

Read MPEC 2010-N13 Read MPEC 2010-N15


MPEC number:

Enter an MPEC number in one of the following forms:

  • 1997-B01 (the full form)
  • J97B01 (the packed version of the full form)
  • B01 (the abbreviated form)

Valid HTML 4.01!